{"data":{"norad_id":49114,"epoch":"2026-09-20T22:29:32.878176Z","epoch_age_seconds":63641,"freshness":"FRESH","line1":"1 49114U 21076C   26263.93718609  .00000201  00000+0  32638-3 0  9994","line2":"2 49114  86.4072 123.6224 0019352 149.1951 211.0333 13.42860041248734","mean_motion":13.42860041,"eccentricity":0.0019352,"inclination_deg":86.4072,"raan_deg":123.6224,"arg_perigee_deg":149.1951,"mean_anomaly_deg":211.0333,"bstar":0.00032638,"rev_number":24873,"period_min":107.23381112209,"perigee_km":1084.1751743194,"apogee_km":1113.113308436,"semimajor_km":7476.7812413777,"source":"CELESTRAK","updated_at":"2026-09-21T09:00:07.983293Z"}}